Location: Cairns City
(16.9233°S, 145.7733°E)
Time: 19:10:03
(UTC+10:00)

OTV 5 (USA 277) - Visible Passes

Search period start: 13 December 2017 00:00
Search period end: 23 December 2017 00:00
Orbit: 404 x 417 km, 43.0° (Epoch: 07 September)

Date Brightness Start Highest point End Pass type
(mag) Time Alt. Az. Time Alt. Az. Time Alt. Az.
20 Dec ? 05:09:16 10° S 05:11:28 16° SE 05:13:39 10° ESE visible
20 Dec ? 20:03:34 10° NNW 20:06:14 39° NNE 20:06:14 39° NNE visible
21 Dec ? 19:13:06 10° N 19:15:47 22° NE 19:18:29 10° E visible
21 Dec ? 20:50:19 10° W 20:53:01 22° SW 20:54:18 18° S visible
22 Dec ? 05:03:27 10° SW 05:06:43 58° SE 05:09:58 10° ENE visible
22 Dec ? 19:58:42 10° WNW 20:01:54 40° SW 20:05:07 10° SSE visible
